Moline, IL
on Friday, July 19, 2013

Friday
Previous Day Next Day
Daily Summary
 ActualAverageRecord
Temperature
Mean Temperature °F 76°F  
Max Temperature 95°F 86°F 101°F (1934)
Min Temperature 76°F 65°F 52°F (2003)
Degree Days
Heating Degree Days 0 0  
Month to date heating degree days 0 0  
Since 1 June heating degree days 27 19  
Since 1 July heating degree days 0 0  
Cooling Degree Days 21 11  
Month to date cooling degree days 200 205  
Year to date cooling degree days 493 495  
Since 1 June cooling degree days 403 419  
Growing Degree Days36 (Base °F )  
Moisture
Dew Point 69°F   
Average Humidity 62    
Maximum Humidity 79    
Minimum Humidity 44    
Precipitation
Precipitation T in 0.13 in 2.57 in (1963)
Month to date precipitation 0.73 2.79  
Year to date precipitation 30.02 21.14  
Since 1 June precipitation 6.87 7.28  
Snow
Snow 0.00 in 0.00 in in ()
Month to date snowfall 0.0 0.0  
Since 1 June snowfall 0.0 0.0  
Since 1 July snowfall 0.0 0.0  
Snow Depth 0.00 in   
Wind
Wind Speed 11 mph   
Max Wind Speed 21 mph   
Max Gust Speed 28 mph   
Visibility 10 miles   
Events     

Key: T is trace of precipitation, MM is missing value
Source: NWS Daily Summary
Time(CDT)TemperatureDew PointHumidity Pressure Visibility Wind DirectionWind SpeedGust SpeedPrecipitationEvents Conditions
12:52 AM 81.0°F 71.1°F 72% 29.94 in 10.0 miles SSW 9.2 mph - N/A   Clear
1:52 AM 80.1°F 71.1°F 74% 29.92 in 10.0 miles SSW 9.2 mph - N/A   Clear
2:52 AM 79.0°F 71.1°F 77% 29.91 in 10.0 miles SSW 10.4 mph - N/A   Clear
3:52 AM 78.1°F 71.1°F 79% 29.90 in 10.0 miles SSW 8.1 mph - N/A   Clear
4:52 AM 79.0°F 70.0°F 74% 29.88 in 10.0 miles SW 11.5 mph - N/A   Clear
5:52 AM 78.1°F 70.0°F 76% 29.88 in 10.0 miles SW 8.1 mph - N/A   Clear
6:52 AM 79.0°F 70.0°F 74% 29.89 in 10.0 miles SW 9.2 mph - N/A   Clear
7:52 AM 81.0°F 70.0°F 69% 29.90 in 10.0 miles SW 9.2 mph 20.7 mph N/A   Clear
8:52 AM 84.9°F 70.0°F 61% 29.90 in 10.0 miles WSW 8.1 mph 18.4 mph N/A   Clear
9:52 AM 88.0°F 70.0°F 55% 29.90 in 10.0 miles WSW 11.5 mph - N/A   Clear
10:52 AM 90.0°F 70.0°F 52% 29.89 in 10.0 miles WSW 13.8 mph 21.9 mph N/A   Scattered Clouds
11:52 AM 91.9°F 71.1°F 50% 29.87 in 10.0 miles WSW 13.8 mph 20.7 mph N/A   Clear
12:52 PM 91.9°F 69.1°F 47% 29.85 in 10.0 miles WSW 15.0 mph 24.2 mph N/A   Clear
1:52 PM 93.0°F 69.1°F 45% 29.83 in 10.0 miles SW 17.3 mph 25.3 mph N/A   Clear
2:52 PM 93.9°F 69.1°F 44% 29.81 in 10.0 miles WSW 20.7 mph 26.5 mph N/A   Clear
3:52 PM 93.9°F 68.0°F 43% 29.80 in 10.0 miles WSW 15.0 mph 24.2 mph N/A   Clear
4:52 PM 93.9°F 68.0°F 43% 29.79 in 10.0 miles WSW 17.3 mph 24.2 mph N/A   Clear
5:52 PM 93.0°F 69.1°F 45% 29.78 in 10.0 miles WSW 13.8 mph 19.6 mph N/A   Clear
6:52 PM 89.1°F 68.0°F 50% 29.77 in 10.0 miles SW 9.2 mph - N/A   Partly Cloudy
7:52 PM 84.0°F 64.9°F 53% 29.79 in 10.0 miles West 15.0 mph 27.6 mph N/A   Partly Cloudy
8:01 PM 82.4°F 66.2°F 58% 29.81 in 10.0 miles West 10.4 mph - N/A   Mostly Cloudy
8:52 PM 81.0°F 66.9°F 62% 29.81 in 10.0 miles West 9.2 mph - 0.00 in   Mostly Cloudy
9:52 PM 80.1°F 66.9°F 64% 29.81 in 10.0 miles West 6.9 mph - N/A   Partly Cloudy
10:52 PM 80.1°F 66.9°F 64% 29.83 in 10.0 miles WNW 3.5 mph - N/A   Mostly Cloudy
11:52 PM 78.1°F 66.9°F 68% 29.83 in 10.0 miles Calm Calm - N/A   Clear
Astronomy
Sunrise:05:45 AM (CDT) Moon Rise:05:33 PM (CDT)7/19
Sunset:08:31 PM (CDT) Moon Set:02:26 AM (CDT)7/19
Moon Phase
Jul. 19 Jul. 22 Jul. 29 Aug. 06 Aug. 14

Copyright © 2016 The Weather Underground, Inc.















  Today is Monday, May 30, the 151st day of 2016. There are 215 days left in the year.
1866 — 150 years ago: There was a frost on Monday night, the 28th, but it is not believed to have done much damage.
1891 — 125 years ago: Dr. Frank Bickel and R. William Shoemaker formed a partnership yesterday to practice dentistry.
1916 — 100 years ago: Kewpie Cerny's slugging gave Rock Island a 6-5 baseball victory over Bloomington.
1941 — 75 years ago: Ralph Lain, assistant principal of Moline High School, was elected president of the Moline Council of Social Agencies last night.
1966 — 50 years ago: Robert A. McGriff, son of Mr. and Mrs. Robert L. McGriff, of Moline, has been selected to participate in the 1966 European concert tour of the American Youth Band and Chorus. Members of the group were selected through a series of nationwide auditions based on musicianship.
1991 — 25 years ago: Tickets will go on sale at 10 a.m. June 1 for the Tom Jones concert to be held at the Adler Theatre in Davenport on July 19. The popular singer will present one show only, at 8 p.m. Tickets are $35 and $22.50.